Date,TemperatureHighF,TemperatureAvgF,TemperatureLowF,DewpointHighF,DewpointAvgF,DewpointLowF,HumidityHigh,HumidityAvg,HumidityLow,PressureMaxIn,PressureMinIn,WindSpeedMaxMPH,WindSpeedAvgMPH,GustSpeedMaxMPH,PrecipitationSumIn
2013-2-1,55,37,23,19,12,5,65,38,17,0.00,40.00,3,0,9,0.00
2013-2-2,46,33,26,24,20,16,81,60,32,0.00,40.00,1,0,6,0.00
2013-2-3,53,36,27,20,16,11,75,46,22,0.00,40.00,5,1,13,0.00
2013-2-4,62,41,24,25,19,13,75,46,16,0.00,40.00,5,2,12,0.00
2013-2-5,55,43,33,21,16,7,55,36,15,0.00,40.00,10,5,26,0.00
2013-2-6,53,36,20,14,7,-5,48,33,10,0.00,40.00,7,1,15,0.00
2013-2-7,43,34,27,25,6,-16,82,35,9,0.00,40.00,11,7,26,0.01
2013-2-8,33,24,14,16,12,8,78,60,43,0.00,40.00,4,1,14,0.01
2013-2-9,38,27,18,13,9,4,67,49,25,0.00,40.00,4,1,11,0.00
2013-2-10,38,28,15,18,12,7,82,51,37,0.00,40.00,5,1,17,0.00
2013-2-11,43,28,14,9,7,4,76,46,21,0.00,40.00,4,1,10,0.00
2013-2-12,50,31,17,16,11,8,73,47,23,0.00,40.00,4,1,12,0.00
2013-2-13,51,34,20,20,17,14,86,54,28,0.00,40.00,6,1,15,0.00
2013-2-14,52,35,22,24,22,19,92,62,32,0.00,40.00,6,1,13,0.00
2013-2-15,56,39,22,25,22,20,100,57,26,0.00,40.00,3,1,10,0.00
2013-2-16,59,36,26,21,8,-22,72,38,3,0.00,40.00,8,1,21,0.00
2013-2-17,54,37,26,18,10,7,71,36,17,0.00,40.00,5,2,12,0.00
2013-2-18,52,35,22,20,15,1,88,52,13,0.00,40.00,12,4,30,0.00
2013-2-19,37,31,24,30,18,11,88,59,36,0.00,40.00,10,6,30,0.01
2013-2-20,40,29,21,23,14,2,97,58,20,0.00,40.00,4,1,13,0.03
2013-2-21,42,28,18,21,12,4,97,53,22,0.00,40.00,4,1,11,0.07
2013-2-22,53,35,17,22,12,6,70,41,16,0.00,40.00,10,2,23,0.02
2013-2-23,41,33,21,20,10,1,51,39,24,0.00,40.00,19,6,42,0.00
2013-2-24,44,28,12,11,7,3,84,45,20,0.00,40.00,5,1,12,0.00
2013-2-25,54,34,21,19,8,-13,73,40,6,0.00,40.00,12,3,30,0.00
2013-2-26,46,30,17,18,7,-9,81,43,10,0.00,40.00,6,1,14,0.00
2013-2-27,56,34,18,14,3,-5,46,30,9,0.00,40.00,8,2,16,0.00
2013-2-28,62,42,28,23,18,10,69,39,21,0.00,40.00,4,1,13,0.00